Location: Middlebury College Observatory
(44.0123°N, 73.1804°W)
Time: 22:29:25
(UTC-05:00)

OTV 5 (USA 277) - Visible Passes

Search period start: 17 February 2018 00:00
Search period end: 27 February 2018 00:00
Orbit: 404 x 417 km, 43.0° (Epoch: 07 September)

Date Brightness Start Highest point End Pass type
(mag) Time Alt. Az. Time Alt. Az. Time Alt. Az.
19 Feb ? 06:14:26 10° SSW 06:17:02 22° SSE 06:19:38 10° E visible
20 Feb ? 05:24:06 10° S 05:26:08 15° SSE 05:28:11 10° ESE visible
21 Feb ? 04:34:43 10° SSE 04:35:17 11° SE 04:36:02 10° SE visible
21 Feb ? 06:08:53 10° SW 06:11:59 39° SSE 06:15:06 10° E visible
22 Feb ? 05:19:05 17° SSW 05:21:01 29° SSE 05:23:57 10° E visible
23 Feb ? 04:30:35 21° SE 04:30:35 21° SE 04:32:41 10° E visible
23 Feb ? 06:03:48 10° WSW 06:07:03 62° S 06:10:19 10° E visible
24 Feb ? 05:14:44 30° SW 05:16:02 50° SSE 05:19:15 10° E visible
25 Feb ? 04:26:04 30° ESE 04:26:04 30° ESE 04:28:09 10° E visible
25 Feb ? 05:58:54 10° W 06:02:11 76° S 06:05:29 10° E visible
26 Feb ? 05:10:07 40° WSW 05:11:08 71° S 05:14:25 10° E visible
